Flag for Portugal Weather past 2 weeks in Guimarães, Portugal

Now
60 °F

Cool.


Feels Like: 61 °F
Forecast: 57 / 92 °F
Wind: 3 mph from Northwest

Location: Porto / Pedras Rubras

Current Time: Jul 7, 2015 at 2:09:11 AM

Latest Report: Jul 7, 2015 at 1:00 AM


Visibility: N/A

Pressure: 30.10 "Hg

Humidity: 87%

Dew point: 56 °F

Location of GuimarãesLocation

Historic Weather in Guimarães — Graph

°F

Guimarães temperature yesterday

Maximum temperature yesterday: 72 °F (at 1:00 PM)
Minimum temperature yesterday: 56 °F (at 6:00 AM)
Average temperature yesterday: 64 °F

Past Weeks' High & Low Weather Summary

 TemperatureHumidityPressure
High76 °F (Jun 27, 1:00 PM)94% (Jun 30, 5:00 AM)30.24 "Hg (Jun 30, 5:00 AM)
Low56 °F (Jul 6, 6:00 AM)43% (Jul 3, 3:00 PM)29.95 "Hg (Jul 1, 6:00 AM)
Average65 °F75%30.11 "Hg
* Reported Midnight between Jun 21 and Jun 22 — Midnight between Jul 6 and Jul 7, Guimarães, Weather by CustomWeather, © 2015

Note: Actual official high and low records may vary slightly from our data, if they occured in-between our weather recording intervals... More about our weather records

Advertising

Guimarães weather history for previous 24 hours

 ConditionsComfort  
Time TempWeatherWind HumidityBarometerVisibility
12:00 AM
Tue, Jul 7
61 °FCool.6 mph87%30.11 "HgN/A
11:00 PM
Mon, Jul 6
60 °FCool.2 mph84%30.10 "HgN/A
9:00 PM63 °FMild.7 mph80%30.08 "HgN/A
8:00 PM65 °FMild.8 mph73%30.08 "HgN/A
7:00 PM66 °FMild.10 mph69%30.07 "HgN/A
6:00 PM70 °FMild.9 mph57%30.07 "HgN/A
5:00 PM71 °FMild.8 mph59%30.07 "HgN/A
4:00 PM71 °FMild.8 mph58%30.08 "HgN/A
3:00 PM70 °FMild.9 mph63%30.09 "HgN/A
2:00 PM69 °FMild.7 mph64%30.09 "HgN/A
1:00 PM72 °FMild.6 mph58%30.09 "HgN/A
12:00 PM71 °FMild.3 mph60%30.09 "HgN/A
11:00 AM69 °FMild.3 mph60%30.09 "HgN/A
10:00 AM68 °FMild.2 mph64%30.09 "HgN/A
9:00 AM65 °FMild.2 mph69%30.09 "HgN/A
8:00 AM64 °FMild.No wind69%30.09 "HgN/A
7:00 AM59 °FCool.2 mph80%30.08 "HgN/A
6:00 AM56 °FCool.1 mph86%30.08 "HgN/A
5:00 AM56 °FCool.1 mph83%30.07 "HgN/A
3:00 AM58 °FCool.2 mph79%30.09 "HgN/A
2:00 AM57 °FCool.No wind81%30.10 "HgN/A
Weather by CustomWeather, © 2015

See weather overviewHow to use our weather pages